This demonstration page uses our WeatherBlox Daily Observations layout. Learn more.

Left ArrowRight Arrow

41.86663, -103.66717

Hourly Observations for July 22, 2017

Temp ( °F °C ) Dew Point ( °F °C ) Humidity (%) Winds ( mph kmh ) Pressure ( in mb ) Visibility ( mi km ) Precip ( " mm )
12:53 am 00:53 Clear 73 22.8 54 12.2 51 51 ESE 5 7 29.91 1013 10 16 0.00 0.00
1:53 am 01:53 Clear 72 22.2 52 11.1 50 50 S 7 11 29.91 1013 10 16 0.00 0.00
2:53 am 02:53 Clear 74 23.3 52 11.1 46 46 Calm 29.90 1013 10 16 0.00 0.00
3:53 am 03:53 Clear 66 18.9 55 12.8 68 68 NW 7 11 29.89 1012 10 16 0.00 0.00
4:53 am 04:53 Clear 65 18.3 55 12.8 70 70 undefined N/A 29.88 1012 10 16 0.00 0.00
5:53 am 05:53 Sunny 63 17.2 56 13.3 78 78 NW 5 7 29.89 1012 10 16 0.00 0.00
6:53 am 06:53 Sunny 67 19.4 57 13.9 71 71 Calm 29.90 1013 10 16 0.00 0.00
7:53 am 07:53 Sunny 72 22.2 56 13.3 57 57 NW 8 13 29.93 1013 10 16 0.00 0.00
8:53 am 08:53 Sunny 76 24.4 55 12.8 48 48 WNW 5 7 29.95 1014 10 16 0.00 0.00
9:53 am 09:53 Sunny 81 27.2 55 12.8 41 41 undefined N/A 29.95 1014 10 16 0.00 0.00
10:53 am 10:53 Sunny 84 28.9 56 13.3 38 38 VRB 5 7 29.95 1014 10 16 0.00 0.00
11:53 am 11:53 Sunny 89 31.7 54 12.2 30 30 E 12 19 29.94 1014 10 16 0.00 0.00
12:53 pm 12:53 Sunny 89 31.7 56 13.3 33 33 E 16 26 29.93 1014 10 16 0.00 0.00
1:53 pm 13:53 Sunny 90 32.2 54 12.2 29 29 E 16 26 29.92 1013 10 16 0.00 0.00
2:53 pm 14:53 Sunny 92 33.3 53 11.7 27 27 E 14 22 29.90 1013 10 16 0.00 0.00
3:53 pm 15:53 Sunny 93 33.9 52 11.1 25 25 SE 15 24 29.90 1013 10 16 0.00 0.00
4:53 pm 16:53 Sunny 92 33.3 52 11.1 26 26 SSE 14 22 29.90 1012 10 16 0.00 0.00
5:53 pm 17:53 Sunny 86 30 55 12.8 35 35 S 15 24 29.91 1013 10 16 0.00 0.00
6:53 pm 18:53 Sunny 86 30 55 12.8 35 35 SSE 10 17 29.90 1013 10 16 0.00 0.00
7:53 pm 19:53 Sunny 81 27.2 54 12.2 39 39 ESE 7 11 29.92 1013 10 16 0.00 0.00
8:53 pm 20:53 Clear 77 25 54 12.2 45 45 SSE 6 9 29.94 1014 10 16 0.00 0.00
9:53 pm 21:53 Clear 71 21.7 55 12.8 57 57 SE 5 7 29.96 1015 10 16 0.00 0.00
10:53 pm 22:53 Clear 68 20 54 12.2 61 61 E 6 9 29.98 1015 10 16 0.00 0.00
11:53 pm 23:53 Clear 68 20 51 10.6 55 55 ENE 9 15 29.97 1015 10 16 0.00 0.00

Powered by AerisWeather